Regional Weather Roundup
Issued by NWS

Home | Current Version | Previous Version | Text Only | Print | Product List | Glossary Off
Versions: 1 2 3 4 5 6 7 8 9 10 11 12 13 14 15 16 17 18 19 20 21 22 23 24 25 26 27 28 29 30 31 32 33 34 35 36 37 38 39 40 41 42 43 44 45 46 47 48 49 50

867
ASUS45 KTFX 132210
RWRMT
MONTANA REGIONAL WEATHER ROUNDUP
NATIONAL WEATHER SERVICE GREAT FALLS MT
300 PM MST SAT FEB 13 2016

NOTE: "FAIR" INDICATES FEW OR NO CLOUDS BELOW 12000 FEET WITH NO
SIGNIFICANT WEATHER AND/OR OBSTRUCTIONS TO VISIBILITY.

MTZ001>007-043-132300-
WEST OF THE DIVIDE

CITY           SKY/WX    TMP DP  RH WIND       PRES   REMARKS
KALISPELL      LGT RAIN  38  33  82 E7        30.11S
MISSOULA       CLOUDY    44  29  55 NW5       30.18S
BUTTE          CLOUDY    37  18  46 NW17G30   30.11R WCI  27
MULLAN PASS    LGT SNOW  26  25  96 VRB7      30.11S VSB 3/4 WCI  18
ANACONDA         N/A     41  19  42 W15       30.13R
DEER LODGE       N/A     39  27  60 N8        30.13R
HAMILTON         N/A     46  19  34 S10G18    30.18R
PLAINS           N/A     47  29  50 SW9       30.15F
$$

MTZ008-052>055-132300-
SOUTHWEST MONTANA

CITY           SKY/WX    TMP DP  RH WIND       PRES   REMARKS
BOZEMAN        MOSUNNY   39  26  59 W7        30.08R
DILLON         SUNNY     42  17  36 W22G35    30.11R
ENNIS          PTSUNNY   39  14  35 VRB6G13   30.15R
TWIN BRIDGES     N/A     41  19  41 W8        30.09R
$$

MTZ009-010-012-014-046-048-049-054-132300-
EAST SLOPES AND CENTRAL MONTANA

CITY           SKY/WX    TMP DP  RH WIND       PRES   REMARKS
CUT BANK       SUNNY     47  22  37 W26G37    29.93R
GREAT FALLS    MOSUNNY   49  19  30 W29G35    29.96R
MALMSTROM AFB  MOSUNNY   48  19  31 W22G33    29.97R
HELENA         MOSUNNY   46  21  37 W22G31    30.06S
CHOTEAU          N/A     46  19  34 W26G36    29.95F
CONRAD           N/A     49  26  41 W21       29.96S
$$

MTZ011-013-016-021-045-047-050-051-132300-
NORTH CENTRAL MONTANA

CITY           SKY/WX    TMP DP  RH WIND       PRES   REMARKS
HAVRE          CLOUDY    44  30  57 W18       29.89R
LEWISTOWN      CLOUDY    44  28  53 NW24G38   29.94R
N BAR RANCH      N/A     43  25  49 NW30G46   29.90S
CHINOOK          N/A     45  30  57 W16       29.87R
$$

MTZ017>020-022>027-061-062-132300-
NORTHEAST MONTANA

CITY           SKY/WX    TMP DP  RH WIND       PRES   REMARKS
GLASGOW        CLOUDY    32  29  88 SW5       29.78S
JORDAN           N/A     44  34  67 W15       29.81R
SIDNEY         CLOUDY    30  27  86 S7        29.79S WCI  23
WOLF POINT     CLOUDY    31  27  85 SW6       29.79  WCI  25
PLENTYWOOD       N/A     23  19  86 S10       29.77R WCI  12
POPLAR           N/A     30  28  93 W5        29.79F
SCOBEY           N/A     26  16  66 SE1       29.75R
$$

MTZ028>42-056>058-132300-
SOUTHCENTRAL AND SOUTHEAST MONTANA

CITY           SKY/WX    TMP DP  RH WIND       PRES   REMARKS
BAKER          LGT SNOW  35  31  85 W8        29.83R FOG     WCI  29
BILLINGS       PTSUNNY   50  16  25 W35G45    29.92F
LIVINGSTON     PTSUNNY   43  23  45 W18       30.05R
MILES CITY     CLOUDY    41  40  96 W12       29.84F
EKALAKA          N/A     37  32  82 NW14      29.82R WCI  28
FORSYTH          N/A     45  36  70 SW14      29.87S
LAUREL           N/A     49  24  37 W25       29.93F
ROUNDUP          N/A     49  21  33 W17       29.83R
$$

REGIONAL REPORTS...DAKOTAS

CITY           SKY/WX    TMP DP  RH WIND       PRES   REMARKS
WILLISTON      HVY SNOW  20  17  88 SE8       29.81S VSB 1/4 WCI  10
MINOT          LGT SNOW  18   8  65 SE13G23   29.92F WCI   5
DICKINSON      CLOUDY    20  16  84 S17       29.80S WCI   5
BEACH          LGT SNOW  32  32 100 SW10      29.82S WCI  24
CROSBY         LGT SNOW  18  16  93 S12       29.83S WCI   5
TIOGA          LGT SNOW  16  16 100 S18       29.85F WCI  -1
WATFORD CITY   LGT SNOW  18  16  93 SE8       29.81F WCI   7
BISMARCK       LGT SNOW  18  10  71 S10       30.00R WCI   6
GRAND FORKS    CLOUDY     9   0  67 SE18      30.25F WCI -10
FARGO          CLOUDY    13   0  56 SE15G25   30.27F WCI  -3
BUFFALO SD       N/A     31  27  85 NW5       29.73S
RAPID CITY     SUNNY     51  32  48 SE14      29.73F
$$

REGIONAL REPORTS...WYOMING/IDAHO/WASHINGTON

CITY           SKY/WX    TMP DP  RH WIND       PRES   REMARKS
GILLETTE       CLOUDY    38  32  79 NW44G56   29.82R WCI  24
SHERIDAN       CLOUDY    34  32  93 NW3       29.92F
BUFFALO WY     SNOW      33  31  92 N38G53    29.88R VSB 1/4 WCI  18
CODY           MOSUNNY   39  18  41 W14G36    29.96S WCI  31
YELLOWSTONE LA   N/A     30  15  53 W8G20     30.08S WCI  22
IDAHO FALLS    PTSUNNY   35  29  78 SW14      30.22R WCI  26
SALMON         MOSUNNY   43  19  39 N13G18    30.19R
BOISE          SUNNY     51  29  42 NW7       30.29F
SPOKANE        CLOUDY    44  32  62 SW20      30.17F
$$

REGIONAL REPORTS...ALBERTA

CITY           SKY/WX    TMP DP  RH WIND       PRES   REMARKS
EDMONTON       SUNNY     41  27  56 W13       29.76S
CALGARY        MOSUNNY   45  30  57 S14       29.82F
LETHBRIDGE     PTSUNNY   50  21  32 W25G35    29.88F
MEDICINE HAT   MOSUNNY   45  34  65 W14G22    29.87S
WATERTON GATE    N/A     46  21  36 SW10G20     N/A
CARDSTON         N/A     46  18  31 W23G32      N/A
MILK RIVER       N/A     48  21  34 W25G31      N/A
$$

REGIONAL REPORTS...SASKATCHEWAN

CITY           SKY/WX    TMP DP  RH WIND       PRES   REMARKS
SWIFT CURRENT  LGT SNOW  23  23 100 W21       29.75R VSB 1   WCI   8
REGINA         CLOUDY    21  16  79 SE20      29.75S WCI   6
SASKATOON      LGT SNOW  19  18  93 NW3       29.79S VSB 1
CYPRESS HILLS    N/A     30  28  93 NW15G25     N/A  WCI  19
VAL MARIE        N/A     37  32  81 NW18G25     N/A  WCI  27
ROCKGLEN         N/A     28  27  93 W13         N/A  WCI  18
ASSINIBOIA       N/A     39  30  70 W13         N/A  WCI  32
$$




USA.gov is the U.S. government's official web portal to all federal, state and local government web resources and services.